OPS 7898 (P/L 4)

导读 | 星芒AI

OPS 7898(P/L 4)是一颗美国空军轨道预测卫星,属于已退役的OPS(Operationally Responsive Space)系列。该卫星于1980年代发射,主要用于军事用途,如轨道监测和空间态势感知。其具体任务细节未公开,但该系列卫星通常用于支持弹道导弹早期预警和空间跟踪系统。OPS 7898目前仍处于轨道上,但已不再活跃运行,属于太空碎片之一。该卫星的轨道参数和状态由国际卫星追踪组织持续监测,以评估其对其他在轨资产的潜在影响。

基本信息
目录编号:
5682
目录名称:
OPS 7898 (P/L 4)
国际标识:
1971-110E
轨道中心:
EARTH
卫星名称:
OPS 7898 (P/L 4)
卫星全名:
--
卫星状态:
在轨 (已飞行19680 天)
发射日期:
1971-12-14 UTC
国别 :
美国 (US)
星等 :
--
轨道信息
数据来源 国际轨道数据 AOE轨道数据
星历时间 2025-10-31T06:27:48+0800
15小时前
查看轨道信息
2025-10-30T16:00:00+0800
1天前
查看轨道信息
半长轴 7361.136km 7361.134km
偏心率 0.0005402 0.0005298
轨道倾角 69.987° 69.988°
近地点辐角 102.181° 101.917°
升交点赤经 119.212° 120.456°
平近点角 257.989° 156.761°
近地点 979.024km 979.099km
远地点 986.978km 986.899km
周期 104.756分钟 104.755分钟
每日圈数 13.746292 13.746296
详细信息
使用方式:
暂无
2D轨道图
3D轨道图
轨道高度分析图
轨道倾角分析图
轨道综合分析图
查看轨道综合分析图